FW8143 Weather Reports


Display with metric or nautical units.
time (UTC)temp
F
wind
direction
speed
MPH
gust
MPH
rain 1hr
in
rain 24hr
in
rain mn
in
humidity
%
barometer
mb
20260509220423 78 234 10.0 28.0 0.00 0.00 0.00 11 1022.0
20260509220126 77 143 9.0 24.0 0.00 0.00 0.00 12 1022.0
20260509220013 78 261 9.0 28.0 0.00 0.00 0.00 10 1021.9
20260509214920 76 260 9.0 24.0 0.00 0.00 0.00 12 1022.1
20260509214414 75 261 6.0 17.0 0.00 0.00 0.00 13 1022.3
20260509213907 74 278 6.0 15.0 0.00 0.00 0.00 14 1022.1
20260509213402 74 293 7.0 15.0 0.00 0.00 0.00 13 1022.5
20260509212858 74 317 8.0 17.0 0.00 0.00 0.00 14 1022.5
20260509212357 74 267 9.0 17.0 0.00 0.00 0.00 13 1022.6
20260509211858 74 325 9.0 19.0 0.00 0.00 0.00 13 1022.8
20260509211358 74 287 9.0 19.0 0.00 0.00 0.00 13 1022.9
20260509210858 74 296 8.0 17.0 0.00 0.00 0.00 14 1022.8
20260509210357 74 196 7.0 15.0 0.00 0.00 0.00 14 1022.9
20260509205858 74 316 7.0 13.0 0.00 0.00 0.00 14 1022.9
20260509205355 74 300 8.0 18.0 0.00 0.00 0.00 14 1022.9
20260509204856 74 336 7.0 22.0 0.00 0.00 0.00 14 1023.0
20260509204356 74 296 7.0 22.0 0.00 0.00 0.00 14 1023.0
20260509204120 74 299 6.0 18.0 0.00 0.00 0.00 15 1023.2
20260509203357 74 340 8.0 18.0 0.00 0.00 0.00 14 1023.2
20260509202855 74 302 9.0 22.0 0.00 0.00 0.00 14 1023.4
20260509202351 74 13 7.0 22.0 0.00 0.00 0.00 14 1023.4
20260509201852 74 327 5.0 11.0 0.00 0.00 0.00 14 1023.4
20260509201354 74 261 5.0 12.0 0.00 0.00 0.00 14 1023.4
20260509201113 74 295 6.0 14.0 0.00 0.00 0.00 14 1023.5
20260509200352 74 306 8.0 14.0 0.00 0.00 0.00 14 1023.5
20260509195852 74 255 9.0 20.0 0.00 0.00 0.00 14 1023.5
20260509195352 74 346 7.0 20.0 0.00 0.00 0.00 14 1023.7
20260509194852 73 256 6.0 18.0 0.00 0.00 0.00 14 1023.8
20260509194353 74 279 5.0 18.0 0.00 0.00 0.00 14 1023.9
20260509193851 74 263 2.0 13.0 0.00 0.00 0.00 15 1024.0
20260509193352 74 138 5.0 16.0 0.00 0.00 0.00 15 1023.9
20260509192851 74 295 8.0 17.0 0.00 0.00 0.00 15 1024.0
20260509192613 74 298 6.0 17.0 0.00 0.00 0.00 15 1024.0
20260509191852 74 304 5.0 12.0 0.00 0.00 0.00 16 1023.9
20260509191351 74 250 5.0 12.0 0.00 0.00 0.00 15 1024.0
20260509190852 75 296 4.0 12.0 0.00 0.00 0.00 15 1024.2
20260509190353 75 323 4.0 13.0 0.00 0.00 0.00 15 1024.0
20260509185851 75 15 3.0 13.0 0.00 0.00 0.00 15 1024.3
20260509185351 75 342 3.0 10.0 0.00 0.00 0.00 15 1024.3
20260509184852 75 35 6.0 13.0 0.00 0.00 0.00 15 1024.4
20260509184352 75 246 7.0 15.0 0.00 0.00 0.00 15 1024.5
20260509183852 76 262 8.0 22.0 0.00 0.00 0.00 14 1024.7
20260509183350 75 171 8.0 22.0 0.00 0.00 0.00 14 1024.4
20260509182848 75 9 9.0 23.0 0.00 0.00 0.00 15 1024.5
20260509182347 75 311 10.0 23.0 0.00 0.00 0.00 15 1024.7
20260509182113 75 348 7.0 19.0 0.00 0.00 0.00 14 1024.8
20260509181345 74 285 5.0 14.0 0.00 0.00 0.00 15 1024.7
20260509180843 74 317 7.0 18.0 0.00 0.00 0.00 15 1024.9
20260509180342 74 157 8.0 23.0 0.00 0.00 0.00 15 1025.0
20260509175841 74 292 9.0 23.0 0.00 0.00 0.00 15 1024.9
20260509175340 74 304 10.0 23.0 0.00 0.00 0.00 15 1025.0
20260509174840 73 336 9.0 23.0 0.00 0.00 0.00 15 1025.0
20260509174338 73 23 9.0 22.0 0.00 0.00 0.00 15 1025.2
20260509173838 72 351 10.0 22.0 0.00 0.00 0.00 15 1025.3
20260509173338 72 301 9.0 19.0 0.00 0.00 0.00 16 1025.2
20260509172837 72 291 10.0 20.0 0.00 0.00 0.00 16 1025.2
20260509172337 72 336 10.0 20.0 0.00 0.00 0.00 15 1025.3
20260509171835 72 31 9.0 18.0 0.00 0.00 0.00 16 1025.2
20260509171336 71 304 10.0 19.0 0.00 0.00 0.00 16 1025.2
20260509170835 71 288 10.0 20.0 0.00 0.00 0.00 16 1025.3
20260509170553 71 329 12.0 20.0 0.00 0.00 0.00 15 1025.3
20260509165835 71 9 11.0 23.0 0.00 0.00 0.00 15 1025.2
20260509165335 71 293 10.0 23.0 0.00 0.00 0.00 16 1025.3
20260509164835 70 223 8.0 18.0 0.00 0.00 0.00 16 1025.2
20260509164557 70 5 8.0 16.0 0.00 0.00 0.00 17 1025.2
20260509163836 69 334 8.0 17.0 0.00 0.00 0.00 18 1025.3
20260509163600 69 331 7.0 17.0 0.00 0.00 0.00 19 1025.3
20260509162835 69 285 7.0 14.0 0.00 0.00 0.00 20 1025.3
20260509162328 68 355 6.0 14.0 0.00 0.00 0.00 19 1025.2
20260509162045 68 327 6.0 12.0 0.00 0.00 0.00 19 1025.2
20260509161550 67 12 6.0 14.0 0.00 0.00 0.00 21 1025.2
20260509160809 67 320 5.0 14.0 0.00 0.00 0.00 22 1025.3
20260509160303 66 318 5.0 12.0 0.00 0.00 0.00 23 1025.3
20260509155757 66 10 6.0 12.0 0.00 0.00 0.00 23 1025.3
20260509155514 65 318 5.0 10.0 0.00 0.00 0.00 24 1025.4
20260509154745 65 306 3.0 10.0 0.00 0.00 0.00 24 1025.3
20260509154238 64 308 3.0 10.0 0.00 0.00 0.00 25 1025.4
20260509153950 63 281 4.0 9.0 0.00 0.00 0.00 25 1025.4
20260509153227 63 255 3.0 9.0 0.00 0.00 0.00 26 1025.4
20260509152721 62 259 3.0 8.0 0.00 0.00 0.00 27 1025.4
20260509152215 61 303 2.0 8.0 0.00 0.00 0.00 28 1025.4
20260509151709 60 239 1.0 5.0 0.00 0.00 0.00 28 1025.4
20260509151202 60 242 2.0 5.0 0.00 0.00 0.00 28 1025.4
20260509150656 60 310 2.0 6.0 0.00 0.00 0.00 29 1025.3
20260509150414 59 252 1.0 6.0 0.00 0.00 0.00 29 1025.3
20260509145645 58 355 2.0 4.0 0.00 0.00 0.00 29 1025.4
20260509145403 58 275 2.0 5.0 0.00 0.00 0.00 29 1025.3
20260509144851 57 335 2.0 5.0 0.00 0.00 0.00 30 1025.3
20260509144127 57 262 3.0 8.0 0.00 0.00 0.00 30 1025.3
20260509143621 56 295 3.0 8.0 0.00 0.00 0.00 31 1025.4
20260509143121 56 234 2.0 7.0 0.00 0.00 0.00 32 1025.4
20260509142621 55 227 1.0 5.0 0.00 0.00 0.00 32 1025.4
20260509142121 54 255 2.0 4.0 0.00 0.00 0.00 32 1025.4
20260509141621 54 234 1.0 4.0 0.00 0.00 0.00 33 1025.3
20260509141121 53 134 0.0 2.0 0.00 0.00 0.00 33 1025.2
20260509140621 53 127 0.0 1.0 0.00 0.00 0.00 34 1025.2
20260509140121 53 93 0.0 0.0 0.00 0.00 0.00 36 1025.2
20260509135621 52 93 1.0 3.0 0.00 0.00 0.00 37 1025.2
20260509135121 52 93 2.0 3.0 0.00 0.00 0.00 37 1025.3
20260509134846 52 96 2.0 4.0 0.00 0.00 0.00 37 1025.2
20260509134119 51 96 2.0 4.0 0.00 0.00 0.00 37 1025.2
20260509133619 51 92 3.0 7.0 0.00 0.00 0.00 37 1025.2
20260509133119 51 80 3.0 7.0 0.00 0.00 0.00 37 1025.0
20260509132840 51 90 4.0 7.0 0.00 0.00 0.00 37 1025.0
20260509132119 51 105 4.0 7.0 0.00 0.00 0.00 37 1025.0
20260509131619 50 96 4.0 7.0 0.00 0.00 0.00 37 1025.0
20260509131339 50 93 4.0 7.0 0.00 0.00 0.00 37 1025.0
20260509130831 50 80 5.0 7.0 0.00 0.00 0.00 36 1024.9
20260509130106 50 90 4.0 7.0 0.00 0.00 0.00 36 1024.9
20260509125601 50 98 4.0 7.0 0.00 0.00 0.00 36 1024.9
20260509125055 50 98 4.0 7.0 0.00 0.00 0.00 36 1024.9
20260509124817 50 92 4.0 8.0 0.00 0.00 0.00 36 1024.8
20260509124043 50 91 4.0 8.0 0.00 0.00 0.00 36 1024.7
20260509123536 51 105 5.0 9.0 0.00 0.00 0.00 35 1024.5
20260509123031 51 62 5.0 9.0 0.00 0.00 0.00 35 1024.4
20260509122524 51 99 4.0 8.0 0.00 0.00 0.00 35 1024.4
20260509122018 51 86 4.0 7.0 0.00 0.00 0.00 35 1024.4
20260509121512 51 98 4.0 7.0 0.00 0.00 0.00 35 1024.3
20260509121007 51 80 4.0 8.0 0.00 0.00 0.00 35 1024.3
20260509120501 51 103 3.0 8.0 0.00 0.00 0.00 34 1024.2
20260509115954 51 88 2.0 7.0 0.00 0.00 0.00 34 1024.0
20260509115449 51 126 4.0 9.0 0.00 0.00 0.00 34 1024.0
20260509114943 51 104 5.0 9.0 0.00 0.00 0.00 34 1024.0
20260509114437 52 103 6.0 9.0 0.00 0.00 0.00 34 1023.9
20260509113933 52 113 6.0 10.0 0.00 0.00 0.00 34 1023.9
20260509113433 52 109 7.0 10.0 0.00 0.00 0.00 34 1023.9
20260509113201 52 113 7.0 12.0 0.00 0.00 0.00 34 1023.8
20260509112429 51 107 7.0 12.0 0.00 0.00 0.00 34 1023.8
20260509111929 51 114 7.0 12.0 0.00 0.00 0.00 34 1023.8
20260509111429 51 97 7.0 12.0 0.00 0.00 0.00 34 1023.9
20260509110929 51 73 7.0 10.0 0.00 0.00 0.00 34 1023.9
20260509110429 51 117 6.0 10.0 0.00 0.00 0.00 35 1023.9
20260509105929 51 127 6.0 10.0 0.00 0.00 0.00 35 1023.9
20260509105429 51 112 6.0 9.0 0.00 0.00 0.00 35 1023.8
20260509104929 51 102 6.0 9.0 0.00 0.00 0.00 35 1023.9
20260509104429 51 98 6.0 9.0 0.00 0.00 0.00 34 1023.8
20260509104147 51 117 6.0 9.0 0.00 0.00 0.00 34 1023.8
20260509103425 51 90 6.0 9.0 0.00 0.00 0.00 34 1023.8
20260509102924 51 82 5.0 8.0 0.00 0.00 0.00 34 1023.8
20260509102646 52 96 5.0 8.0 0.00 0.00 0.00 34 1023.8
20260509101925 52 117 5.0 8.0 0.00 0.00 0.00 34 1023.8
20260509101425 52 85 5.0 8.0 0.00 0.00 0.00 34 1023.8
20260509100926 52 94 6.0 9.0 0.00 0.00 0.00 33 1023.8
20260509100426 53 90 6.0 9.0 0.00 0.00 0.00 33 1023.8
20260509095926 53 114 6.0 9.0 0.00 0.00 0.00 33 1023.8
20260509095425 53 112 6.0 9.0 0.00 0.00 0.00 32 1023.8
20260509094924 53 73 6.0 8.0 0.00 0.00 0.00 32 1023.8
20260509094425 53 97 6.0 9.0 0.00 0.00 0.00 32 1023.8
20260509093925 54 110 7.0 9.0 0.00 0.00 0.00 31 1023.8
20260509093425 54 102 7.0 9.0 0.00 0.00 0.00 31 1023.8
20260509092924 54 82 6.0 9.0 0.00 0.00 0.00 31 1023.8
20260509092424 54 90 6.0 9.0 0.00 0.00 0.00 31 1023.8
20260509091925 54 92 6.0 9.0 0.00 0.00 0.00 31 1023.8
20260509091424 54 81 6.0 9.0 0.00 0.00 0.00 31 1023.8
20260509090919 54 83 6.0 8.0 0.00 0.00 0.00 31 1023.8
20260509090413 54 86 6.0 9.0 0.00 0.00 0.00 31 1023.7
20260509090130 54 76 7.0 10.0 0.00 0.00 0.00 31 1023.8
20260509085635 54 92 6.0 10.0 0.00 0.00 0.00 31 1023.7
20260509084913 54 119 6.0 9.0 0.00 0.00 0.00 31 1023.5
20260509084637 54 105 5.0 9.0 0.00 0.00 0.00 31 1023.7
20260509083912 54 88 4.0 8.0 0.00 0.00 0.00 31 1023.7
20260509083412 55 86 5.0 8.0 0.00 0.00 0.00 30 1023.7
20260509082912 55 98 4.0 8.0 0.00 0.00 0.00 30 1023.8
20260509082638 55 78 3.0 6.0 0.00 0.00 0.00 30 1023.7
20260509081911 55 86 3.0 6.0 0.00 0.00 0.00 30 1023.7
20260509081411 55 89 4.0 7.0 0.00 0.00 0.00 30 1023.5
20260509080910 55 74 4.0 9.0 0.00 0.00 0.00 30 1023.5
20260509080411 55 82 4.0 9.0 0.00 0.00 0.00 30 1023.7
20260509080127 55 66 5.0 8.0 0.00 0.00 0.00 30 1023.7
20260509075633 55 73 6.0 9.0 0.00 0.00 0.00 30 1023.7
20260509074911 55 62 7.0 9.0 0.00 0.00 0.00 30 1023.7
20260509074411 55 92 6.0 10.0 0.00 0.00 0.00 30 1023.5
20260509073906 55 91 6.0 10.0 0.00 0.00 0.00 30 1023.7
20260509073359 55 103 6.0 9.0 0.00 0.00 0.00 30 1023.7
20260509072853 55 82 6.0 9.0 0.00 0.00 0.00 30 1023.8
20260509072347 55 92 6.0 9.0 0.00 0.00 0.00 30 1023.8
20260509072102 55 78 6.0 9.0 0.00 0.00 0.00 30 1023.8
20260509071335 55 100 6.0 8.0 0.00 0.00 0.00 30 1023.9
20260509070829 55 98 6.0 9.0 0.00 0.00 0.00 30 1023.8
20260509070323 55 86 7.0 10.0 0.00 0.00 0.00 30 1023.8
20260509065817 55 101 7.0 10.0 0.00 0.00 0.00 30 1023.9
20260509065311 55 101 7.0 9.0 0.00 0.00 0.00 30 1024.0
20260509064806 55 80 6.0 9.0 0.00 0.00 0.00 30 1024.0
20260509064259 55 98 6.0 10.0 0.00 0.00 0.00 30 1024.0
20260509063759 55 105 7.0 10.0 0.00 0.00 0.00 30 1024.0
20260509063258 55 67 7.0 10.0 0.00 0.00 0.00 30 1024.0
20260509062759 55 90 7.0 10.0 0.00 0.00 0.00 30 1024.0
20260509062258 55 79 7.0 10.0 0.00 0.00 0.00 30 1024.2
20260509061759 55 107 6.0 9.0 0.00 0.00 0.00 29 1024.0
20260509061257 55 94 6.0 10.0 0.00 0.00 0.00 29 1024.0
20260509060758 55 113 6.0 10.0 0.00 0.00 0.00 29 1024.0
20260509060258 55 103 6.0 9.0 0.00 0.00 0.00 29 1024.2
20260509055757 56 107 6.0 10.0 0.00 0.00 0.00 29 1024.2
20260509055257 56 93 7.0 10.0 0.00 0.00 0.00 28 1024.2
20260509054757 56 92 7.0 10.0 0.00 0.00 0.00 28 1024.2
20260509054257 56 98 7.0 10.0 0.00 0.00 0.00 28 1024.2
20260509053757 56 106 6.0 9.0 0.00 0.00 0.00 28 1024.2
20260509053514 56 77 5.0 8.0 0.00 0.00 0.00 27 1024.3
20260509053012 56 78 6.0 8.0 0.00 0.00 0.00 28 1024.2
20260509052253 56 104 6.0 9.0 0.00 0.00 0.00 27 1024.3
20260509051752 56 80 7.0 10.0 0.00 0.00 0.00 27 1024.3
20260509051734 57 98 7.0 10.0 0.00 0.00 0.00 27 1024.3
20260509050754 57 98 7.0 9.0 0.00 0.00 0.00 26 1024.3
20260509050254 57 101 6.0 9.0 0.00 0.00 0.00 26 1024.4
20260509045752 57 101 6.0 11.0 0.00 0.00 0.00 26 1024.4
20260509045253 57 76 7.0 11.0 0.00 0.00 0.00 26 1024.4
20260509044752 58 76 6.0 10.0 0.00 0.00 0.00 25 1024.4
20260509044252 58 98 6.0 10.0 0.00 0.00 0.00 25 1024.4
20260509043753 58 109 7.0 12.0 0.00 0.00 0.00 25 1024.4
20260509043252 58 98 7.0 12.0 0.00 0.00 0.00 25 1024.4
20260509043016 59 107 6.0 9.0 0.00 0.00 0.00 25 1024.5
20260509042253 59 79 4.0 9.0 0.00 0.00 0.00 24 1024.7
20260509041753 59 96 4.0 9.0 0.00 0.00 0.00 23 1024.7
20260509041252 60 64 4.0 9.0 0.00 0.00 0.00 23 1024.5
20260509040751 60 95 3.0 8.0 0.00 0.00 0.00 23 1024.5
20260509040251 60 89 2.0 7.0 0.00 0.00 0.00 22 1024.4
20260509035750 60 98 2.0 4.0 0.00 0.00 0.00 22 1024.4
20260509035517 61 97 3.0 6.0 0.00 0.00 0.00 21 1024.4
20260509034747 61 90 3.0 7.0 0.00 0.00 0.00 21 1024.3
20260509034244 62 81 3.0 7.0 0.00 0.00 0.00 21 1024.3
20260509033743 62 79 3.0 6.0 0.00 0.00 0.00 21 1024.2
20260509033735 62 96 2.0 4.0 0.00 0.00 0.00 21 1024.2
20260509032742 63 88 1.0 4.0 0.00 0.00 0.00 20 1024.0
20260509032506 63 178 1.0 4.0 0.00 0.00 0.00 20 1024.0
20260509031742 64 238 2.0 4.0 0.00 0.00 0.00 19 1023.9
20260509031243 64 215 1.0 4.0 0.00 0.00 0.00 19 1023.8
20260509030742 64 254 1.0 5.0 0.00 0.00 0.00 19 1023.8
20260509030242 65 208 2.0 5.0 0.00 0.00 0.00 19 1023.7
20260509030013 65 252 2.0 7.0 0.00 0.00 0.00 19 1023.5
20260509025505 65 274 2.0 9.0 0.00 0.00 0.00 19 1023.5
20260509024743 65 234 3.0 9.0 0.00 0.00 0.00 18 1023.4
20260509024242 66 229 3.0 7.0 0.00 0.00 0.00 18 1023.3
20260509023736 66 223 5.0 13.0 0.00 0.00 0.00 18 1023.2
20260509023230 66 232 6.0 13.0 0.00 0.00 0.00 17 1023.0
20260509023206 67 238 6.0 12.0 0.00 0.00 0.00 17 1023.0
20260509022218 67 261 5.0 12.0 0.00 0.00 0.00 17 1022.9
20260509021712 68 254 5.0 12.0 0.00 0.00 0.00 16 1022.8
20260509021206 68 261 5.0 12.0 0.00 0.00 0.00 16 1022.6
20260509020700 69 241 4.0 12.0 0.00 0.00 0.00 16 1022.6
20260509020154 69 248 5.0 12.0 0.00 0.00 0.00 16 1022.5
20260509015648 69 173 6.0 11.0 0.00 0.00 0.00 16 1022.4
20260509015141 70 272 7.0 13.0 0.00 0.00 0.00 16 1022.3
20260509014635 70 263 7.0 13.0 0.00 0.00 0.00 15 1022.3
20260509014130 71 265 7.0 12.0 0.00 0.00 0.00 16 1022.1
20260509013850 71 261 7.0 14.0 0.00 0.00 0.00 16 1022.1
20260509013337 71 267 6.0 15.0 0.00 0.00 0.00 16 1022.0
20260509012611 71 227 5.0 15.0 0.00 0.00 0.00 17 1022.0
20260509012106 71 175 3.0 9.0 0.00 0.00 0.00 17 1021.9
20260509011601 71 221 3.0 7.0 0.00 0.00 0.00 17 1022.0
20260509011054 71 270 2.0 7.0 0.00 0.00 0.00 17 1022.0
20260509010548 71 243 2.0 6.0 0.00 0.00 0.00 18 1022.1
20260509010041 71 240 4.0 8.0 0.00 0.00 0.00 17 1022.0
20260509005535 71 199 5.0 11.0 0.00 0.00 0.00 17 1022.0
20260509005030 72 242 5.0 11.0 0.00 0.00 0.00 17 1022.0
20260509004523 72 216 4.0 11.0 0.00 0.00 0.00 17 1022.1
20260509004017 72 259 4.0 10.0 0.00 0.00 0.00 17 1022.1
20260509003511 72 236 5.0 10.0 0.00 0.00 0.00 17 1022.1
20260509003006 72 242 4.0 8.0 0.00 0.00 0.00 18 1022.1
20260509002719 72 232 3.0 7.0 0.00 0.00 0.00 17 1022.1
20260509001953 72 263 3.0 7.0 0.00 0.00 0.00 17 1022.1
20260509001448 73 252 2.0 7.0 0.00 0.00 0.00 17 1022.3
20260509000942 73 255 2.0 4.0 0.00 0.00 0.00 17 1022.1
20260509000436 73 192 2.0 7.0 0.00 0.00 0.00 17 1022.3
20260508235930 73 251 3.0 7.0 0.00 0.00 0.00 16 1022.3
20260508235424 74 250 3.0 8.0 0.00 0.00 0.00 16 1022.3
20260508234918 74 236 5.0 10.0 0.00 0.00 0.00 16 1022.3
20260508234412 75 273 6.0 12.0 0.00 0.00 0.00 15 1022.3
20260508233906 76 236 4.0 12.0 0.00 0.00 0.00 15 1022.3
20260508233400 77 248 4.0 13.0 0.00 0.00 0.00 15 1022.3
20260508232854 77 263 6.0 13.0 0.00 0.00 0.00 14 1022.1
20260508232348 77 25 6.0 12.0 0.00 0.00 0.00 15 1022.1
20260508231842 78 305 5.0 12.0 0.00 0.00 0.00 14 1022.3
20260508231813 78 9 5.0 13.0 0.00 0.00 0.00 14 1022.1
20260508231320 78 325 6.0 16.0 0.00 0.00 0.00 15 1022.3
20260508230323 78 40 6.0 16.0 0.00 0.00 0.00 14 1022.1
20260508225817 78 344 5.0 17.0 0.00 0.00 0.00 14 1022.1
20260508225312 78 28 4.0 17.0 0.00 0.00 0.00 14 1022.1
20260508224806 78 193 3.0 11.0 0.00 0.00 0.00 14 1022.1
20260508224300 78 328 3.0 9.0 0.00 0.00 0.00 14 1022.3
20260508224022 78 331 3.0 13.0 0.00 0.00 0.00 15 1022.3
20260508223248 78 254 5.0 13.0 0.00 0.00 0.00 14 1022.3
20260508222742 78 254 5.0 15.0 0.00 0.00 0.00 14 1022.4
20260508222503 78 337 7.0 16.0 0.00 0.00 0.00 14 1022.4
20260508221734 78 43 7.0 16.0 0.00 0.00 0.00 14 1022.4
20260508221234 77 5 7.0 16.0 0.00 0.00 0.00 15 1022.4